RH
9 9 8 6 6 5 5 5 10 11 8 16 20 12 9 8 8 9 10 12 16 13 9 11 11 10 13 17 23 25 25 23 24 33 39 44 39 35 36 32 30 31 33 33 32 32 32 33 33 32 32 29 29 31 32 30 30 32 34 35 34 37 39 43 53 60 65 68 70 69 67 65 68 74 70 62 56 52 48 45 44 52 61 55 67 96 102 96 97 99 97 97 93 84 80 81 80
8 8 7 6 5 5 6 5 10 14 11 17 19 9 7 8 7 11 13 13 14 13 10 10 12 15 21 27 32 32 30 34 38 37 36 38 39 41 42 38 35 32 31 30 30 30 30 31 31 32 31 29 28 30 31 28 29 30 31 34 37 42 45 49 57 64 67 69 71 68 63 59 61 70 70 62 56 54 48 46 49 52 61 58 56 76 96 97 95 98 96 94 96 92 88 88 83
6 7 6 6 5 5 6 5 11 20 17 14 15 12 10 13 15 16 14 13 13 14 18 18 20 23 25 26 28 29 26 34 43 44 45 46 48 48 45 43 41 39 37 35 34 32 31 31 30 30 28 26 25 27 30 27 27 29 31 35 41 46 49 52 58 65 69 72 71 65 60 60 64 68 68 64 58 54 48 43 49 52 53 58 55 61 83 92 88 90 90 89 94 95 90 85 77
6 7 6 6 5 6 7 7 11 17 18 13 15 18 14 14 15 13 11 11 13 15 18 20 20 19 19 19 18 18 18 24 34 42 47 49 50 47 45 43 40 38 36 35 34 31 29 27 26 24 22 20 21 25 28 28 30 31 35 41 47 49 49 50 55 64 71 76 73 66 60 61 70 72 68 66 61 53 47 42 44 51 52 53 52 64 88 91 80 81 84 84 92 96 87 78 73
6 6 6 6 6 7 8 9 10 10 15 14 15 17 10 10 11 9 11 11 13 13 14 15 15 14 12 14 13 13 15 18 23 32 39 41 42 41 39 35 33 31 28 27 25 23 23 21 19 17 14 14 16 21 24 30 36 38 44 51 52 46 42 41 45 55 65 75 75 69 63 63 73 77 76 70 62 59 52 41 40 47 52 52 51 68 88 86 81 80 79 77 84 93 88 80 76
6 6 6 6 6 8 9 13 17 14 12 10 12 14 9 11 11 10 12 12 13 13 13 13 13 13 10 11 12 13 17 21 25 30 35 37 36 35 32 30 30 28 26 23 21 19 18 17 15 13 11 11 13 16 22 32 41 47 55 58 51 43 40 39 39 39 45 59 71 71 62 64 76 80 83 73 65 77 72 50 43 50 54 55 57 70 81 81 81 77 75 75 79 90 92 85 78
6 6 6 6 7 8 10 14 19 16 9 7 9 10 9 11 10 11 11 11 11 11 12 12 13 13 11 13 13 18 27 31 34 36 38 37 34 31 31 32 31 28 26 22 19 16 14 14 13 12 11 12 14 17 24 34 44 52 61 59 51 47 45 44 41 35 31 41 61 70 62 65 76 77 82 73 60 70 78 64 50 58 63 57 62 72 78 76 75 75 75 76 81 91 93 86 78
6 6 6 7 9 8 9 10 10 10 7 7 7 8 9 11 11 12 11 10 10 9 11 12 13 13 11 15 17 24 36 40 41 41 38 35 32 31 31 31 30 29 27 20 16 14 13 13 13 13 13 15 18 21 27 35 43 50 56 55 52 48 43 41 38 34 30 36 56 68 65 67 72 70 71 66 55 48 63 73 53 55 68 63 68 73 71 69 72 75 72 74 82 87 90 87 79
6 7 7 9 11 10 10 9 7 7 6 7 7 9 11 12 13 12 11 10 11 10 12 13 13 14 12 13 16 22 32 37 37 37 35 33 31 31 31 31 33 32 27 19 14 13 13 14 14 14 15 17 21 24 28 33 39 42 44 44 45 42 37 35 33 31 30 36 51 63 65 67 68 67 64 61 63 57 63 80 61 50 66 71 74 71 64 65 66 70 71 77 84 85 89 89 82
6 7 7 8 11 13 16 16 12 7 6 7 8 11 13 13 13 12 11 11 12 12 13 16 16 16 15 12 13 17 24 30 31 32 32 32 32 31 31 32 33 31 24 17 12 12 14 14 15 16 17 18 20 23 27 30 32 33 33 34 35 35 32 31 32 31 32 35 42 50 56 61 61 58 57 52 52 57 65 82 74 54 65 77 76 69 65 63 60 69 74 80 88 87 89 89 86
7 7 7 12 19 19 20 19 13 7 6 8 9 14 14 14 14 12 12 11 13 15 16 19 18 15 14 11 13 21 26 29 30 31 33 34 34 32 30 29 28 25 19 16 12 12 13 14 15 15 17 17 19 21 24 27 29 30 29 30 30 31 31 31 33 33 33 35 39 41 44 49 50 46 46 41 37 51 67 83 80 60 66 77 73 67 65 58 56 69 76 83 91 85 80 81 81
7 7 7 13 20 17 14 11 8 7 6 9 13 15 14 14 14 13 13 12 14 15 16 18 17 15 13 11 13 22 27 30 32 34 36 35 33 28 24 22 19 18 16 14 12 11 12 13 14 15 16 16 18 19 22 24 25 26 26 26 27 27 29 31 31 33 33 33 35 37 38 41 46 47 43 41 43 54 62 66 67 65 75 78 72 67 61 54 53 69 84 90 92 83 76 73 69
8 7 8 13 14 9 8 6 6 7 8 11 14 15 13 14 14 14 15 14 15 15 15 16 15 15 14 12 14 20 25 29 32 32 30 27 22 18 15 13 12 12 11 11 11 10 11 11 12 14 16 17 18 19 21 22 22 23 23 23 23 23 24 27 28 30 30 30 32 32 34 38 43 47 46 47 46 52 59 62 67 78 90 86 75 67 60 55 51 67 88 92 91 86 78 75 69
8 7 9 13 11 6 6 6 7 9 11 13 13 15 15 14 14 14 15 15 15 15 15 15 15 17 15 13 16 19 21 23 23 20 17 13 11 9 8 8 8 8 8 9 10 10 10 10 10 12 15 17 17 18 19 19 21 21 22 22 21 21 20 21 23 24 25 26 28 28 31 35 39 43 45 46 43 49 60 65 71 80 94 96 82 67 61 54 45 60 85 91 91 89 81 80 78
8 8 8 9 8 6 6 6 8 11 13 15 15 16 16 14 14 14 15 15 13 13 15 15 15 18 17 14 16 17 16 14 13 11 9 8 7 7 7 7 7 7 7 8 9 9 9 9 9 10 12 14 16 17 18 18 18 18 19 20 20 19 18 18 18 19 20 21 23 25 27 29 34 40 43 47 50 55 62 68 70 71 89 98 84 69 61 52 46 59 80 90 91 87 86 87 84
7 7 8 9 9 8 7 7 9 15 16 16 16 16 14 13 14 14 14 13 11 12 13 13 13 15 15 14 15 15 13 11 10 9 9 8 8 8 8 8 8 7 6 7 8 8 9 9 8 9 9 11 13 14 15 16 16 18 18 18 18 17 16 16 16 16 16 16 18 19 21 23 27 38 50 56 62 64 70 82 80 76 91 96 82 66 56 57 65 75 84 90 95 91 90 93 90
8 9 9 8 8 7 8 9 13 19 18 16 16 14 14 13 13 13 12 11 11 12 11 13 12 12 14 14 13 12 11 10 9 9 9 9 9 9 8 8 8 8 7 7 7 7 8 8 8 8 9 9 10 11 12 13 14 15 16 17 16 14 14 14 14 14 14 14 15 16 18 20 20 32 47 50 57 70 78 86 86 86 96 97 86 67 53 66 87 92 90 92 97 95 92 93 92
10 10 10 9 8 7 9 13 14 15 16 17 16 14 14 13 13 13 10 10 11 10 11 13 12 12 14 13 12 11 9 9 9 9 9 9 9 8 8 8 8 8 8 7 7 7 7 7 8 8 8 9 9 9 9 10 11 11 12 13 13 12 12 12 13 12 13 12 12 15 15 19 20 24 30 26 44 77 89 89 89 92 99 99 91 78 63 72 94 95 92 96 98 98 96 93 92
12 11 11 9 8 9 11 13 13 12 14 16 15 14 14 13 14 12 10 11 11 10 13 14 10 12 13 12 11 10 9 9 9 9 9 8 9 8 8 8 8 8 8 9 8 8 8 8 8 8 8 8 8 8 8 8 9 10 10 11 12 12 11 11 12 11 13 12 12 14 15 19 19 20 27 29 45 76 91 95 95 96 100 92 80 77 71 78 97 96 93 99 99 99 99 95 93
12 12 12 9 8 10 11 12 12 13 14 14 14 14 14 14 14 12 11 12 12 13 14 13 11 11 12 10 10 10 10 10 9 9 9 9 9 9 9 9 8 8 9 9 10 9 9 8 8 8 8 8 8 8 8 8 8 9 10 11 12 11 12 11 10 11 12 12 13 13 15 22 28 37 48 59 65 69 79 91 95 95 88 74 64 63 64 76 92 91 91 97 100 100 99 99 98
11 10 10 9 9 11 12 14 14 14 14 14 14 14 14 14 14 13 13 13 12 15 15 13 11 11 11 11 10 10 10 10 10 10 10 10 10 10 10 9 9 8 8 9 10 10 10 9 9 8 8 8 8 8 8 8 8 8 9 10 11 11 11 11 11 12 11 13 14 12 17 27 41 48 53 73 82 72 73 74 68 64 56 54 56 51 53 69 80 87 95 98 100 100 99 100 98
10 9 10 10 11 12 13 15 16 16 15 15 15 15 14 14 14 14 16 15 12 16 17 13 12 11 10 11 11 11 11 11 12 11 11 11 11 11 10 10 10 9 8 8 8 9 9 10 10 9 9 8 7 8 8 8 8 8 8 9 10 11 11 11 11 11 12 13 15 19 22 26 37 41 49 71 74 65 65 55 38 34 36 44 48 45 57 72 80 93 100 100 100 100 100 100 97
11 10 10 11 12 13 14 16 17 17 16 15 15 14 14 14 15 15 16 15 14 16 16 14 12 12 11 12 12 12 12 12 13 12 12 12 12 12 11 11 11 10 9 8 8 7 7 8 9 9 8 9 9 8 8 8 9 8 8 9 9 10 10 11 11 11 12 12 22 44 48 38 35 35 42 50 42 36 40 36 30 30 33 40 40 46 67 80 84 94 97 99 101 99 100 99 98
13 11 11 12 14 14 16 17 17 18 16 15 16 14 14 15 15 14 14 15 15 16 16 15 14 13 13 13 14 14 14 14 14 14 14 13 13 12 12 11 11 11 10 8 8 7 6 6 6 6 6 7 8 8 8 8 9 9 8 8 8 10 10 11 11 11 12 11 24 53 61 48 41 40 38 36 33 29 27 29 31 33 38 44 45 54 76 88 91 95 96 99 100 99 100 98 98
14 13 13 14 15 16 17 18 17 17 16 16 16 14 15 17 16 13 13 16 18 18 17 16 15 15 15 15 15 15 15 15 14 15 14 14 14 13 13 13 11 11 11 9 9 9 7 6 6 6 5 5 5 5 6 7 9 10 10 9 9 9 9 10 11 11 12 11 15 31 44 49 53 54 44 36 39 37 37 42 40 41 50 56 58 67 85 96 97 95 93 96 99 99 99 97 96
15 15 15 15 16 16 17 17 16 17 17 17 16 15 16 17 17 14 13 18 19 18 18 17 16 16 16 16 16 16 15 15 15 15 14 14 14 14 14 14 13 13 13 12 11 11 10 9 8 7 6 5 5 5 5 5 7 8 10 11 11 10 10 10 11 11 11 13 13 15 27 44 50 45 40 44 53 57 63 67 64 64 68 74 80 86 92 96 98 97 91 93 99 99 98 98 97
17 16 16 15 16 16 16 16 17 18 17 16 16 16 17 17 17 15 16 19 18 18 17 17 16 16 16 16 16 16 16 15 15 15 15 15 15 14 14 14 14 14 14 14 13 13 12 12 12 10 9 8 7 7 6 5 5 6 9 11 12 12 13 12 11 12 12 13 14 15 19 27 31 30 46 72 83 81 79 79 84 89 89 91 95 95 93 89 91 91 87 90 98 99 99 98 95
18 17 16 15 17 16 15 16 16 17 16 17 19 19 19 17 17 16 18 19 17 17 16 16 17 16 16 16 16 16 16 16 16 16 15 15 15 14 15 14 14 14 14 14 14 14 14 13 14 12 12 11 10 8 7 7 6 6 7 9 12 13 14 14 13 14 14 14 14 16 18 20 25 27 42 69 79 78 78 84 95 98 97 97 95 93 91 89 91 91 91 96 100 99 99 98 94
19 18 17 15 17 16 14 15 15 16 17 20 22 22 21 16 16 17 18 19 17 16 16 16 16 16 16 15 16 16 16 17 16 17 16 16 16 15 16 16 16 16 15 15 15 14 14 13 13 13 13 12 11 10 8 8 7 7 6 8 10 13 15 16 17 16 15 17 15 17 19 21 27 29 34 44 53 68 82 93 98 95 94 96 96 96 92 91 96 98 99 98 99 99 97 96 93
21 21 20 16 16 16 13 15 16 17 18 21 23 27 28 18 14 18 18 19 18 17 16 15 15 15 15 15 16 17 16 17 16 17 17 16 16 16 16 17 17 17 16 16 16 15 15 14 14 13 13 12 11 10 9 8 7 7 7 7 8 11 15 17 19 20 18 19 18 19 21 23 26 30 38 40 47 77 97 97 98 97 96 97 98 99 97 97 98 100 100 96 96 97 95 91 85
21 23 22 18 17 15 13 15 17 17 18 21 24 29 31 17 12 18 19 19 18 17 16 15 15 14 15 16 16 16 15 16 16 16 16 16 16 16 16 16 16 17 16 17 16 16 16 16 16 15 15 14 12 11 10 10 10 10 9 8 7 8 11 14 17 20 21 22 22 23 23 27 29 32 42 44 51 84 102 97 98 100 99 99 99 98 98 98 98 100 101 96 94 95 94 89 82
23 27 27 20 16 15 14 15 17 18 20 22 24 32 34 19 12 16 18 19 18 18 17 15 15 15 15 16 15 15 15 16 17 16 16 15 15 15 15 15 15 15 15 16 16 16 16 16 16 16 16 16 15 14 13 13 12 13 13 12 11 10 10 12 15 17 21 24 24 26 26 29 33 37 50 53 49 68 91 99 99 96 98 100 100 99 99 98 97 99 101 98 96 99 99 92 85
26 25 24 19 16 18 16 15 16 18 21 22 23 31 34 21 14 16 16 18 18 17 16 15 15 15 15 16 16 16 16 16 15 15 15 15 15 15 15 15 15 15 15 15 15 16 16 16 16 16 17 17 17 17 16 16 15 15 16 17 16 15 14 15 17 19 22 25 26 28 29 32 35 42 63 75 62 56 74 94 97 97 100 99 99 100 98 98 99 99 99 95 90 93 96 93 85
30 21 18 19 19 21 18 16 16 17 20 23 25 28 27 21 17 16 16 17 18 17 15 14 14 14 15 16 16 15 14 14 14 14 15 15 16 15 15 15 15 16 16 16 17 17 18 18 18 18 18 19 19 19 18 18 18 18 18 19 20 19 19 18 19 22 26 27 28 29 30 34 37 42 61 81 80 70 73 84 89 96 101 98 98 100 98 98 98 99 95 83 79 83 89 90 79
24 20 22 27 25 22 18 16 16 17 22 25 26 26 23 21 19 17 16 17 17 16 14 13 13 13 15 15 14 14 13 14 14 15 16 16 16 16 15 16 17 17 18 18 19 20 22 22 22 21 21 21 21 21 20 19 19 20 20 20 21 22 23 21 20 23 28 31 32 33 34 37 42 46 55 68 82 90 86 84 81 82 93 98 94 90 89 86 85 93 92 78 81 88 87 84 74
18 22 26 30 27 21 16 16 18 21 27 26 24 24 23 22 20 17 17 17 16 15 13 13 12 13 14 14 14 14 14 15 16 17 17 16 16 16 16 17 17 18 18 18 19 20 22 23 24 23 23 22 22 22 22 22 22 21 21 22 22 23 25 25 24 25 30 35 37 39 40 43 48 53 60 66 79 93 96 96 87 71 74 85 85 81 77 72 71 79 79 76 86 91 83 78 77
20 24 26 25 24 21 15 17 21 22 28 27 22 22 23 21 19 17 17 17 16 15 13 12 12 13 14 14 14 15 16 17 18 17 17 17 17 18 18 18 18 17 17 17 18 19 20 21 22 22 21 19 19 21 23 24 24 25 24 24 25 26 27 27 28 31 36 41 43 43 45 48 52 55 63 71 77 87 92 97 97 83 78 82 83 83 78 75 80 79 76 79 86 85 81 82 82
22 24 27 27 24 19 16 19 23 23 27 27 23 23 24 20 18 18 17 17 17 15 14 13 13 14 14 14 15 16 18 18 18 17 18 18 18 19 18 18 18 17 17 16 16 17 17 18 18 18 17 17 18 21 25 27 27 28 29 29 29 28 28 29 31 35 39 44 46 45 46 49 53 54 60 72 82 86 84 86 97 98 96 92 86 85 87 89 95 95 92 92 90 86 88 93 89
24 26 30 30 23 20 22 23 23 25 28 27 25 24 22 19 17 17 17 18 18 15 14 15 15 15 15 15 16 18 19 18 18 18 18 19 19 19 19 19 19 18 17 17 16 16 16 16 16 16 17 18 19 22 28 32 32 33 34 35 34 32 31 31 32 35 39 44 46 46 48 49 53 55 61 77 90 93 89 90 98 100 100 99 92 92 98 99 98 99 99 97 96 96 95 99 99
25 26 31 30 22 23 29 29 27 27 29 28 27 26 22 19 18 19 21 20 19 17 16 16 16 16 16 16 17 18 18 17 17 18 19 19 19 19 19 19 18 18 18 17 17 16 16 16 16 16 18 19 22 25 30 35 37 39 40 40 39 37 34 32 32 34 37 43 48 48 49 51 55 58 65 78 89 95 97 98 99 99 99 101 99 98 100 100 99 99 99 98 99 100 98 99 100
24 27 30 27 21 23 30 33 31 29 29 28 27 27 25 23 22 23 24 22 20 19 19 18 18 18 18 17 17 17 17 17 18 19 19 19 20 20 19 19 18 18 17 16 16 16 15 15 16 16 18 21 25 28 32 36 40 42 43 44 44 42 38 35 34 34 37 44 52 54 53 55 58 60 67 77 85 92 95 96 99 100 100 99 99 100 99 100 99 99 100 99 100 99 98 99 99
33 31 25 22 23 28 32 34 34 36 37 36 32 28 26 27 28 27 26 24 22 21 20 20 20 20 19 18 19 19 19 19 19 20 20 21 21 22 21 20 20 18 17 16 16 16 16 16 17 18 20 22 26 31 35 38 41 43 45 47 48 48 46 41 38 37 41 48 55 59 59 59 61 64 70 76 80 84 86 89 94 98 100 100 100 100 99 100 100 100 100 99 100 101 97 95 95
41 30 19 23 30 34 36 34 38 41 40 41 38 33 32 32 32 31 27 26 26 23 22 21 22 22 20 20 20 20 21 21 22 23 24 24 23 23 22 22 21 20 19 18 18 18 17 17 18 19 21 23 27 32 37 40 42 44 46 48 49 51 51 50 48 46 46 49 54 59 61 62 63 64 68 73 74 76 77 79 83 91 97 99 99 99 100 99 98 99 100 98 99 100 97 92 93
39 27 21 31 35 36 38 37 42 41 40 46 41 34 40 42 38 34 29 30 29 25 24 23 23 22 21 22 22 22 23 24 26 26 26 26 26 25 24 23 22 21 20 20 20 20 19 19 19 19 21 22 25 29 34 38 42 44 46 47 49 49 50 51 54 55 56 56 56 59 62 63 63 63 67 76 82 82 80 79 82 90 98 99 98 99 99 99 98 99 100 100 100 100 100 98 97
33 31 33 38 36 38 40 40 44 43 48 58 46 34 42 45 41 36 30 30 30 26 25 24 23 24 24 25 24 24 26 26 26 27 28 29 29 28 27 25 24 23 22 21 20 20 20 20 20 20 20 21 22 25 29 33 38 44 46 47 49 51 51 52 55 61 67 71 72 73 73 72 75 80 85 91 96 96 94 93 93 96 99 99 99 100 99 97 95 95 95 94 94 94 96 97 98
34 38 42 41 39 41 42 43 48 52 60 61 45 33 36 35 37 37 32 30 29 26 24 24 25 26 25 26 27 27 27 26 26 28 31 33 33 32 31 29 27 24 22 21 20 20 19 19 19 19 20 21 21 22 25 30 34 42 48 49 51 52 54 56 58 65 74 82 85 83 79 76 79 87 92 95 98 98 97 99 99 99 99 96 95 96 93 90 88 87 87 86 87 88 89 90 92
39 43 45 46 47 45 45 46 49 55 58 48 34 30 34 34 35 35 31 28 27 25 24 25 27 26 26 28 29 28 27 26 28 31 34 35 35 36 35 34 31 27 23 22 21 21 20 19 18 19 20 22 23 24 29 35 40 45 51 53 53 54 56 56 60 70 78 80 79 76 74 74 74 75 76 80 86 89 91 94 94 92 90 86 84 84 82 82 84 86 87 87 86 86 86 87 88
42 47 49 51 49 45 48 55 57 53 45 36 31 32 38 40 35 32 30 28 27 26 25 26 28 28 29 30 30 28 27 28 31 35 39 40 39 40 40 38 33 28 24 22 22 22 21 21 20 21 23 24 26 29 35 44 50 53 56 57 56 58 59 60 65 74 77 74 72 72 74 77 78 77 76 79 81 83 84 85 85 84 83 82 82 82 82 82 83 87 89 87 84 81 81 81 80
47 52 57 55 47 44 47 50 52 46 37 35 36 37 43 42 36 34 30 26 26 26 26 28 30 31 31 31 29 27 28 31 34 39 44 46 46 46 47 43 37 30 25 24 23 24 24 23 23 23 25 28 32 37 42 49 55 57 58 60 60 62 64 67 71 75 77 78 79 80 80 81 82 82 83 83 83 83 83 82 84 85 86 86 85 84 84 85 84 85 87 86 84 81 78 76 75
46 51 59 56 45 47 48 40 38 38 34 34 37 42 45 39 34 34 29 27 27 27 28 30 29 31 31 30 28 28 31 34 37 43 49 51 51 52 52 47 38 31 27 26 25 26 27 25 25 27 31 38 44 50 54 56 59 59 58 60 62 65 68 71 74 77 78 80 81 81 81 80 80 81 83 85 84 83 83 83 84 85 86 85 84 80 78 78 77 77 79 81 81 79 75 73 73
45 45 52 55 46 42 41 34 33 35 33 37 43 44 39 33 31 33 32 30 30 30 30 29 29 31 31 30 31 33 36 37 41 49 53 54 55 55 53 46 38 33 30 29 28 29 29 27 28 33 41 53 60 62 65 63 61 59 59 61 65 69 72 75 78 80 80 80 79 79 78 78 78 80 82 84 85 85 85 85 86 86 85 85 84 82 78 77 77 77 78 79 80 79 77 76 76
52 48 55 61 50 40 38 34 37 43 44 48 50 42 35 33 32 33 34 33 31 32 32 31 32 34 33 33 35 39 42 44 49 53 54 54 54 53 51 45 39 35 33 31 31 32 31 30 35 44 54 65 70 69 69 66 63 62 63 68 74 77 78 79 82 85 86 86 84 82 81 82 83 85 86 86 88 90 91 92 92 91 90 90 89 86 82 80 80 80 81 82 82 81 81 81 81
53 54 59 55 44 42 43 41 44 50 50 48 46 41 38 37 38 38 37 34 33 33 33 34 34 34 34 37 41 45 48 50 53 55 55 53 52 53 53 48 41 37 35 33 34 35 33 35 45 58 66 72 75 73 71 69 68 68 72 80 87 89 86 84 85 87 88 88 88 87 87 87 87 87 86 87 91 95 97 98 98 97 97 96 94 90 87 85 84 85 86 86 86 84 84 84 83
53 60 56 46 45 50 49 48 50 52 51 47 42 41 39 37 41 44 41 36 34 34 35 36 35 36 39 42 47 50 51 54 55 55 55 55 55 58 56 49 41 38 36 34 36 37 36 41 54 67 75 77 78 76 75 75 77 79 83 88 94 96 94 90 86 84 83 82 83 84 86 86 86 85 83 84 91 97 100 100 100 100 100 98 96 94 93 91 89 89 89 88 87 85 83 83 82
52 56 49 46 52 57 57 58 55 51 52 49 41 40 39 36 38 43 41 35 34 35 36 36 36 41 46 50 52 53 53 56 56 57 59 61 63 61 54 48 43 40 39 39 40 40 39 46 60 73 79 80 80 80 80 82 85 89 93 95 97 94 88 84 82 82 84 84 85 86 89 90 91 91 91 93 96 99 100 100 100 100 99 97 95 95 94 93 92 91 89 87 85 82 81 81 81
50 52 54 56 53 53 57 59 54 50 49 48 46 43 39 38 40 42 39 34 36 40 38 38 42 49 54 55 54 55 56 59 62 64 66 68 69 61 51 49 49 48 49 47 46 46 46 55 70 80 83 83 83 83 85 88 91 94 98 100 95 86 82 84 88 92 95 94 94 95 96 98 98 99 99 99 100 100 100 100 100 98 96 95 95 94 93 92 91 90 87 84 82 80 79 79 79
44 50 58 60 55 54 58 57 53 52 50 49 53 50 41 41 47 46 44 44 46 46 44 47 53 55 57 57 57 61 64 66 69 70 72 73 69 59 54 55 55 56 57 55 52 51 54 66 81 87 87 86 85 86 90 94 96 98 100 100 95 89 90 94 96 99 100 96 96 99 99 100 100 100 100 100 100 100 100 100 98 94 93 94 94 94 93 90 88 87 85 84 83 81 81 82 83
39 44 47 48 49 55 63 62 56 57 56 50 52 53 45 44 50 50 49 51 50 50 49 51 55 56 60 63 66 69 70 70 73 74 74 72 64 57 57 56 53 53 55 55 55 53 59 74 86 90 90 90 90 92 96 99 99 100 100 100 98 97 99 100 99 100 100 97 97 99 99 100 100 100 100 100 100 100 100 100 95 92 92 94 95 95 92 88 87 88 88 88 88 88 89 90 90
Wind_Speed
22 22 22 22 22 21 21 19 14 17 18 14 15 18 18 17 16 15 14 13 14 15 16 16 17 17 17 17 17 18 17 17 15 14 12 12 15 15 16 17 17 18 17 18 18 19 19 19 20 20 21 21 21 21 22 23 23 24 25 25 25 24 24 23 24 25 25 25 25 24 24 24 25 25 25 23 21 19 19 21 20 20 20 19 20 30 33 30 25 18 16 16 19 25 26 22 18
22 21 22 22 22 20 19 18 13 15 16 12 14 20 18 16 14 10 10 12 12 13 14 15 16 16 15 15 16 17 16 14 13 15 16 16 17 16 17 18 18 19 19 20 20 21 22 22 22 23 23 23 23 22 23 23 24 24 24 24 24 24 23 23 24 26 26 26 26 25 25 26 26 26 26 24 22 21 21 21 20 20 20 19 18 21 22 23 22 18 18 20 21 25 28 26 20
23 22 22 21 21 20 18 17 13 12 12 11 13 17 14 9 8 7 9 11 12 12 12 13 14 15 16 16 16 18 16 13 14 15 15 15 16 17 19 20 20 20 20 21 22 23 23 24 25 25 25 24 23 23 23 23 23 23 22 22 23 23 23 23 24 26 27 27 27 26 26 27 27 26 26 25 23 22 23 22 21 20 21 20 19 23 20 18 19 16 16 21 23 22 25 25 22
24 23 23 22 21 19 18 16 16 13 11 11 10 11 11 8 9 11 12 13 13 14 14 16 17 17 17 18 19 19 17 15 16 16 16 16 18 20 21 22 22 23 23 23 24 24 25 25 26 26 25 24 23 22 22 22 22 21 20 21 22 23 23 23 24 26 27 27 27 27 27 28 28 27 26 25 24 24 24 23 21 20 21 21 21 22 21 17 15 14 14 20 23 20 21 23 22
25 24 24 22 21 18 17 17 19 16 12 11 10 12 16 14 14 14 14 15 15 16 18 19 20 20 19 19 20 19 17 17 17 17 18 19 21 22 22 23 24 25 25 25 25 25 25 25 25 25 24 23 22 22 21 21 20 19 19 21 22 22 22 22 23 25 27 28 27 27 28 29 28 27 26 26 26 26 24 23 22 21 21 21 21 22 21 18 16 16 15 16 19 19 20 22 22
25 25 24 23 21 18 17 18 18 18 17 15 14 15 17 16 16 15 14 15 16 17 19 20 20 22 21 19 19 17 16 17 17 18 19 20 22 22 23 25 25 26 25 25 24 24 24 24 23 23 22 21 21 20 20 19 19 19 20 21 22 22 22 22 23 25 27 28 28 28 28 29 28 27 26 25 26 27 24 22 22 22 23 21 21 22 22 20 19 18 15 15 18 20 21 21 19
25 24 24 22 21 19 18 19 18 20 20 16 14 15 15 15 17 16 15 15 15 16 18 19 20 22 20 18 17 14 14 16 16 18 20 21 22 23 25 26 26 25 25 25 23 23 22 22 21 20 20 19 19 19 19 18 18 19 20 22 23 24 24 25 25 26 27 27 28 28 29 29 28 27 26 25 26 26 26 24 21 22 23 22 21 22 23 22 21 19 17 17 18 21 23 22 20
24 23 23 21 21 20 20 23 22 21 20 16 14 14 14 15 17 17 15 15 16 16 18 19 21 22 20 17 16 13 13 15 17 19 21 23 24 25 25 26 25 25 24 24 23 22 21 20 19 19 18 18 18 18 18 18 19 20 22 23 25 26 27 27 27 26 26 26 28 28 29 29 28 28 28 27 27 27 28 26 22 22 23 22 22 22 24 22 22 20 19 18 18 22 24 24 25
24 23 22 20 19 21 22 25 24 21 18 15 14 15 15 16 17 17 16 16 16 17 18 19 20 21 20 17 16 15 15 17 19 21 23 24 25 25 25 25 25 24 24 23 22 21 20 19 19 18 18 17 18 18 18 19 20 22 24 25 27 27 27 26 26 25 25 26 28 29 29 29 30 30 29 28 27 26 28 27 24 23 23 23 23 23 23 22 23 22 21 19 18 22 25 26 27
24 22 20 20 19 20 22 23 23 20 17 16 15 15 16 15 16 16 16 16 16 17 16 18 18 19 19 16 15 15 16 18 20 22 23 25 25 25 25 24 24 24 24 23 22 20 19 18 18 18 18 18 18 19 19 20 21 23 24 25 26 26 25 25 25 25 25 26 27 29 30 30 32 31 30 29 29 28 29 28 24 23 24 23 23 22 22 23 23 23 23 20 18 20 23 23 24
23 22 20 18 18 19 20 21 22 21 17 15 15 15 14 14 15 15 17 16 15 17 16 17 18 18 18 16 15 14 16 18 20 22 23 24 25 25 25 24 24 24 24 23 22 20 18 17 17 18 18 19 19 20 20 21 22 23 24 24 24 24 24 24 24 24 25 26 26 28 30 30 31 32 32 31 30 29 29 28 26 25 25 24 22 23 23 22 23 24 24 21 20 19 21 21 22
21 22 20 18 19 20 22 23 24 22 16 14 14 13 13 13 15 15 16 16 15 17 16 17 19 19 20 17 15 14 16 17 19 20 21 24 25 25 25 24 23 23 23 23 21 20 19 18 18 18 19 20 20 20 21 22 23 24 24 25 25 24 24 25 25 25 26 26 27 28 29 29 30 31 31 31 30 29 30 30 29 27 27 26 24 24 23 22 22 24 24 22 22 22 22 22 23
20 21 20 19 23 24 24 24 24 21 15 12 13 13 13 13 14 14 15 15 15 16 15 16 18 20 21 19 16 14 15 17 18 20 22 24 25 25 24 23 22 22 22 22 21 20 19 19 18 18 19 20 20 21 21 22 24 24 25 25 26 25 25 26 26 27 27 28 28 28 29 29 29 31 31 31 31 29 30 31 28 27 28 28 25 24 23 21 21 23 25 25 26 25 25 24 24
20 20 20 20 25 25 24 23 22 21 15 12 13 13 13 12 13 15 16 16 14 14 15 15 17 19 20 18 16 15 17 18 20 22 24 24 24 23 22 21 21 21 21 21 21 21 20 20 19 19 20 20 21 22 22 23 24 25 26 26 26 26 26 27 28 28 28 29 29 29 29 30 30 31 31 31 32 30 30 32 31 29 29 27 26 24 22 22 22 24 27 28 28 28 26 25 25
19 20 20 22 26 26 23 21 20 20 15 11 13 14 14 13 14 15 15 16 14 13 15 15 16 18 19 18 16 18 19 21 22 23 23 23 22 22 21 20 20 21 21 21 21 21 21 21 20 20 21 21 22 22 23 23 24 24 25 26 26 26 27 27 27 28 28 28 29 30 30 30 30 30 30 30 31 31 33 35 34 32 32 29 25 25 24 23 24 26 29 30 31 29 27 27 27
19 19 20 22 25 25 23 20 17 18 15 12 14 15 15 12 13 14 13 15 16 14 15 15 16 17 18 18 18 19 21 22 23 23 23 23 22 21 21 21 21 22 22 22 22 21 21 21 20 20 21 22 22 22 23 23 24 24 25 25 25 26 26 26 27 27 27 27 28 29 29 30 30 30 29 29 30 32 34 36 34 33 35 30 24 25 26 25 26 27 29 32 33 30 29 29 28
19 19 21 24 26 25 21 17 15 16 16 15 15 15 15 12 12 15 14 15 16 15 15 14 17 18 17 18 19 21 22 23 23 24 24 23 22 21 21 21 21 22 22 23 23 23 23 22 21 21 21 21 22 22 23 23 23 24 25 25 25 26 26 26 26 27 27 27 27 27 27 29 30 30 30 30 30 32 35 36 32 32 34 29 25 27 27 26 28 27 30 34 34 31 30 29 26
20 20 22 25 26 24 19 15 15 17 18 17 15 15 16 14 13 16 16 16 17 17 14 13 15 17 17 18 20 22 23 23 23 23 23 22 21 21 20 21 21 21 22 22 24 24 24 23 23 22 21 21 23 23 23 23 23 24 25 25 25 26 26 26 26 26 26 27 27 26 26 27 28 29 30 29 28 32 36 34 31 34 34 29 26 28 28 28 29 29 31 33 33 31 30 28 27
20 22 25 26 24 22 18 14 15 18 19 17 15 15 15 15 15 17 17 17 19 17 15 12 14 18 18 19 21 23 23 22 22 22 22 21 20 20 20 19 19 20 20 21 22 23 23 23 23 24 23 23 24 24 24 23 23 23 23 24 25 25 26 26 26 26 26 26 26 26 26 27 27 28 28 27 26 29 34 33 33 36 35 33 31 30 30 31 31 32 33 34 32 30 29 30 31
21 23 27 26 21 20 19 15 15 17 19 19 16 15 16 15 16 18 18 20 21 16 13 12 17 20 20 20 20 20 21 21 21 21 21 20 20 20 19 19 18 18 18 20 20 21 22 23 24 24 25 25 25 25 25 24 24 23 23 24 25 26 26 26 27 26 26 26 26 26 26 26 26 25 25 25 26 29 33 36 37 39 38 38 36 32 33 33 33 34 36 35 32 30 29 30 30
22 25 26 25 21 22 20 16 16 17 19 19 17 17 18 17 17 17 19 22 20 15 14 15 18 21 20 20 18 18 20 21 22 22 21 21 20 20 19 19 18 18 18 19 20 21 22 23 25 25 26 27 27 27 26 26 26 25 24 24 25 26 27 27 27 26 26 25 26 27 27 26 25 25 26 27 29 33 37 40 41 43 42 40 37 35 35 34 34 35 36 35 32 32 32 31 30
24 26 25 23 22 23 21 17 17 18 18 19 19 20 21 20 19 18 19 23 19 16 17 17 19 21 21 21 20 20 21 22 23 23 22 21 21 22 22 21 20 20 20 21 21 22 22 24 25 26 27 28 29 29 28 28 28 28 27 26 27 28 28 28 28 28 27 26 27 27 27 27 26 26 27 30 33 37 39 41 42 43 43 40 39 37 35 34 36 37 36 34 33 33 32 31 32
24 27 25 22 22 24 22 19 19 19 19 19 19 22 23 21 21 20 21 22 18 15 17 18 20 21 21 22 23 24 24 25 25 24 24 24 24 24 24 24 23 23 23 23 24 25 25 25 26 27 28 28 29 30 30 30 30 30 29 29 29 29 30 30 30 29 29 28 26 26 27 28 28 28 29 31 34 36 38 39 39 40 39 39 38 36 34 36 38 39 37 34 33 33 32 32 32
24 27 26 23 23 24 22 22 22 21 20 19 21 23 22 21 23 24 23 21 18 15 17 20 22 22 22 23 24 25 25 25 25 24 25 26 25 25 25 26 27 27 25 25 27 28 27 28 29 29 29 29 30 31 31 31 32 32 32 31 31 31 31 32 32 31 30 29 27 26 29 30 29 30 31 31 32 33 33 33 34 35 35 35 36 35 35 38 40 40 39 37 35 34 34 33 32
25 27 27 24 24 23 22 23 23 23 22 21 22 22 22 22 25 26 23 20 19 19 20 22 22 23 24 25 25 25 25 25 25 25 26 27 27 27 27 28 29 29 28 28 29 29 29 30 30 30 31 31 31 32 31 31 32 33 34 34 33 33 33 33 33 33 32 31 30 29 30 30 30 31 32 30 29 29 29 29 30 32 32 34 35 36 38 40 40 40 40 39 38 36 36 35 33
25 26 26 26 25 23 23 24 24 24 23 23 24 24 24 24 24 26 23 21 22 22 23 23 24 25 25 25 25 25 25 25 25 26 27 28 29 29 29 30 30 30 30 30 31 31 32 32 32 32 33 33 34 34 33 32 33 33 34 35 35 34 35 35 34 34 34 33 32 32 32 31 31 33 31 28 27 27 27 28 29 31 33 34 36 38 40 41 40 39 39 40 39 38 37 35 33
26 25 27 27 26 26 25 25 24 24 25 25 26 24 23 23 24 24 22 21 24 24 25 26 26 25 25 25 25 26 27 26 26 27 28 28 30 31 31 31 31 31 32 31 32 33 33 33 33 33 34 35 36 36 35 34 34 34 34 35 36 36 36 36 35 35 35 35 34 34 34 33 34 34 30 29 31 30 30 31 31 33 35 37 38 40 41 41 40 39 40 41 41 39 37 35 34
26 27 29 28 27 27 26 25 25 26 27 24 22 22 22 24 24 22 22 23 25 25 26 25 25 25 25 27 27 27 27 27 28 29 29 30 31 32 31 31 32 32 32 33 33 34 34 34 34 35 35 36 37 37 37 37 37 36 36 37 37 37 37 37 36 36 35 35 35 35 35 35 35 34 32 35 37 35 33 34 37 37 38 40 41 40 40 40 40 41 43 43 41 39 36 34 32
25 26 27 27 26 27 26 26 27 26 25 22 22 23 23 25 23 21 22 24 24 25 25 25 26 27 27 28 28 28 29 29 30 30 32 33 33 34 32 32 33 33 32 33 33 34 34 34 34 35 36 37 37 38 39 39 39 39 39 38 38 38 38 38 37 37 37 36 36 36 36 36 35 35 34 36 36 35 36 38 41 41 40 40 40 40 40 40 39 41 42 42 40 38 36 33 31
24 24 26 28 28 28 27 24 23 23 24 23 23 20 18 22 24 23 23 24 25 25 25 26 26 27 28 29 29 30 31 32 33 33 34 33 32 32 30 29 31 31 31 32 32 33 33 33 33 33 34 36 37 38 39 39 40 41 41 40 40 40 39 39 38 38 38 38 37 36 36 36 36 36 35 35 35 35 39 40 40 41 41 42 41 41 41 40 37 38 39 39 38 38 35 34 33
27 26 26 27 26 28 28 25 23 24 25 24 23 20 20 24 24 24 25 25 27 27 26 26 27 28 29 30 31 32 32 32 32 31 30 29 29 29 28 28 29 30 30 31 32 32 33 33 33 33 32 33 35 36 38 38 40 41 42 42 42 42 42 41 40 40 39 38 38 37 36 36 36 36 36 37 38 40 42 41 39 39 40 42 43 44 44 41 37 35 36 38 38 37 35 33 32
28 24 20 24 26 28 30 29 26 26 25 25 24 21 23 26 24 24 28 27 27 27 27 27 28 29 30 32 33 31 29 26 25 26 25 26 27 27 27 28 28 30 30 31 32 32 33 33 33 33 33 33 34 36 38 38 39 40 41 42 43 43 43 43 43 42 40 37 38 38 37 36 36 36 36 37 40 44 46 45 40 37 37 38 39 41 42 41 39 37 37 38 39 36 34 33 33
29 26 22 25 28 27 28 30 28 25 26 27 27 24 27 30 28 26 27 27 27 27 28 29 30 31 32 31 27 23 22 21 22 23 24 25 26 26 27 27 28 29 30 30 31 32 32 33 33 34 35 35 36 37 38 39 39 39 39 40 41 42 43 43 43 42 41 39 38 38 38 37 37 36 36 37 39 42 46 48 46 42 39 38 38 39 40 39 38 38 40 42 43 42 41 39 38
25 26 26 25 25 25 27 30 30 27 28 29 31 33 35 35 30 27 26 26 27 28 30 31 31 30 27 21 19 20 22 22 22 22 23 24 24 26 26 26 27 27 28 29 30 30 31 31 32 32 34 35 37 38 39 40 40 40 40 40 40 40 41 43 44 43 42 41 39 39 39 38 38 37 36 38 39 39 43 48 50 49 47 45 44 44 44 43 41 39 41 45 48 49 48 45 44
22 23 22 20 23 27 29 31 30 30 31 31 32 37 38 35 31 28 26 25 28 30 31 31 27 22 17 16 20 23 23 23 23 22 22 23 24 25 25 26 26 27 28 28 29 29 29 29 29 30 31 33 35 37 39 40 41 41 41 41 41 41 41 42 44 44 43 42 40 40 40 39 38 37 37 38 40 41 42 46 49 51 52 51 50 50 50 50 49 46 46 48 49 48 46 45 46
25 25 24 23 26 30 31 30 29 29 31 34 35 37 37 34 32 29 26 27 30 28 27 25 19 14 14 19 22 22 21 21 21 21 22 23 24 25 25 26 27 28 29 29 30 31 31 31 31 31 32 33 34 35 37 38 39 40 39 39 40 41 41 42 43 44 43 41 40 40 39 38 37 37 38 39 41 43 42 43 46 49 52 53 52 52 53 52 51 50 51 52 51 49 47 45 46
26 28 29 29 29 32 30 27 28 29 33 37 36 35 37 36 33 30 30 30 27 23 21 17 12 15 19 20 20 20 19 19 19 22 23 24 25 25 26 27 27 28 29 30 31 32 33 33 33 34 34 35 35 36 36 37 37 37 36 36 37 39 41 42 43 43 42 40 39 39 39 38 37 37 38 39 42 46 46 46 46 48 49 51 51 51 51 52 51 52 53 55 54 52 50 48 47
28 29 29 29 30 33 30 25 27 30 32 37 36 37 41 38 36 34 31 25 19 18 15 10 11 16 19 19 19 19 17 17 20 23 24 25 25 26 27 27 27 28 28 30 31 31 32 33 33 34 34 34 35 35 35 35 35 34 33 33 35 38 40 42 44 43 42 41 39 40 40 40 39 39 39 39 42 45 48 49 47 47 48 49 51 52 51 50 50 52 54 55 55 53 50 49 49
28 29 29 30 31 32 28 24 27 28 30 35 36 41 44 42 40 34 24 16 13 14 9 9 13 14 15 17 17 17 17 19 21 23 24 25 26 27 27 27 27 28 28 29 29 30 31 32 32 32 32 33 34 34 34 34 34 33 31 31 32 35 37 40 43 44 43 42 41 40 41 41 41 41 40 39 42 44 46 49 49 48 48 48 50 54 54 53 52 53 54 55 54 53 51 48 48
30 30 29 30 29 28 26 25 27 26 29 34 36 44 47 41 35 22 13 10 6 6 9 11 12 12 12 15 15 17 20 22 23 23 24 25 26 27 28 28 28 28 29 28 29 29 30 31 31 31 31 32 32 33 34 34 34 33 32 31 32 34 36 39 42 44 44 44 43 41 41 42 43 43 41 40 44 47 48 49 51 51 51 51 52 55 58 57 56 55 55 56 56 55 53 48 47
32 30 28 29 29 27 27 26 26 26 29 33 34 40 37 25 18 11 8 6 5 4 13 11 9 10 10 11 14 18 21 22 24 24 25 26 27 28 28 29 29 29 29 29 29 29 29 30 30 31 31 31 31 31 31 32 32 32 32 31 32 34 37 39 41 43 45 45 43 42 42 42 43 43 44 43 44 48 51 51 52 53 54 54 54 55 56 57 57 54 52 53 53 53 52 50 49
27 26 27 29 27 25 24 23 24 23 21 23 24 24 18 12 10 10 8 6 10 9 13 8 8 9 8 10 15 18 20 22 23 23 24 26 26 27 28 28 28 29 29 29 29 29 28 29 29 30 31 31 31 31 30 30 30 30 30 31 31 33 36 39 41 44 45 45 45 44 43 44 44 45 46 47 47 49 52 54 54 55 55 55 55 55 54 53 53 51 50 51 52 53 54 53 52
25 27 29 27 24 21 19 20 21 16 14 20 19 12 16 19 10 8 7 10 11 13 9 8 8 9 8 13 16 17 21 22 22 22 23 24 25 26 27 27 27 27 27 28 28 28 28 28 29 30 31 31 31 32 31 30 29 29 28 29 29 30 32 35 39 43 46 47 47 47 47 46 47 48 48 50 51 51 52 53 55 57 58 58 57 57 56 55 54 54 55 56 56 56 57 57 56
27 28 25 21 21 20 19 22 21 21 24 26 24 18 22 22 10 8 9 10 11 11 7 8 8 9 12 15 15 19 23 22 21 22 24 25 26 26 26 27 27 28 28 28 28 28 29 28 29 30 31 32 32 33 33 33 32 30 29 28 28 29 29 30 34 37 41 45 47 49 50 51 52 53 53 53 52 52 51 52 55 56 57 59 58 55 52 52 53 54 54 54 53 52 52 52 53
29 26 21 19 21 21 22 22 20 25 26 16 17 19 17 15 12 10 10 10 11 10 7 7 8 11 16 15 16 23 23 21 22 24 26 26 26 26 27 28 29 30 30 30 30 30 30 30 30 31 32 33 34 34 35 35 35 33 31 29 28 29 30 30 32 33 35 38 41 44 45 46 48 49 50 50 49 49 49 51 54 53 50 49 49 46 43 41 40 40 40 40 40 40 40 42 43
25 23 22 20 22 22 21 22 21 23 18 12 20 24 15 10 9 9 9 11 10 7 7 8 10 14 16 14 20 24 22 23 25 26 26 26 27 28 30 32 32 33 32 32 32 32 33 33 33 33 33 34 35 35 35 36 36 34 32 30 29 30 31 31 32 32 33 33 34 36 35 34 35 36 39 40 42 43 45 47 48 45 41 38 37 36 35 34 33 33 33 34 35 36 37 38 39
24 23 22 20 22 22 21 23 21 15 11 14 24 27 18 8 3 7 10 8 5 9 14 14 14 15 15 17 24 25 23 27 28 27 27 27 30 31 33 35 35 34 34 33 34 34 35 35 35 35 35 35 35 35 35 35 35 34 33 32 31 32 32 31 32 32 31 31 31 31 30 29 28 30 33 34 36 38 39 41 40 37 36 34 33 34 34 34 36 38 38 38 37 38 38 39 40
25 24 21 17 14 13 14 13 10 8 6 8 12 14 16 14 6 5 12 12 13 18 18 14 13 15 19 23 25 25 27 30 29 28 28 30 33 35 36 38 38 36 34 34 35 36 37 37 37 36 36 36 36 36 35 34 34 34 32 32 32 32 32 30 30 29 29 29 29 28 28 27 28 29 30 31 32 34 35 37 38 37 37 38 39 40 41 41 43 44 44 42 40 39 39 40 40
27 24 17 10 5 4 6 5 4 7 9 10 11 7 12 21 20 19 23 21 18 17 16 16 19 22 23 23 25 29 32 32 30 29 29 31 34 36 38 40 40 38 36 36 37 38 38 38 37 37 37 36 36 36 35 34 33 32 30 29 29 28 28 26 25 25 25 26 27 28 29 29 30 30 30 31 32 34 37 39 41 42 42 43 43 44 44 44 45 45 44 43 41 40 39 40 40
29 28 20 11 4 3 6 5 3 7 10 13 15 9 9 18 21 19 16 12 13 19 24 25 25 23 22 25 29 32 33 32 32 30 29 32 35 37 41 43 42 40 39 39 39 39 38 38 37 37 36 35 34 33 33 32 31 30 28 26 25 24 23 22 22 23 24 25 26 27 28 29 30 30 31 32 33 35 37 39 40 41 41 41 41 41 41 41 41 41 41 41 40 39 39 39 38
24 26 23 16 12 8 5 3 3 5 9 9 8 7 6 7 10 9 7 13 23 27 24 21 22 22 24 29 32 33 34 34 32 30 31 33 36 41 44 45 44 43 42 41 41 40 38 37 36 35 34 32 32 31 31 30 29 28 27 25 23 22 21 21 21 22 23 25 26 27 29 30 31 32 33 34 35 36 37 38 38 39 39 40 39 39 39 39 38 38 37 37 37 37 36 36 35
23 23 21 19 20 16 10 11 12 8 10 8 8 14 19 19 25 26 21 26 26 19 17 20 23 24 28 32 34 35 36 34 31 30 33 36 40 45 47 47 46 45 44 42 41 40 37 36 35 34 32 30 30 31 30 30 29 28 26 24 23 22 22 23 24 24 26 27 29 31 32 34 35 36 38 39 41 41 41 40 40 40 40 39 39 38 38 38 37 37 36 35 35 35 35 34 34
21 21 22 23 24 19 12 14 15 10 9 11 10 18 26 23 24 24 19 20 20 19 21 23 25 28 32 35 35 36 36 34 32 33 36 41 45 49 51 49 48 46 44 41 39 38 37 35 34 32 31 29 30 30 30 30 29 28 27 25 24 24 25 27 28 29 31 32 34 36 37 38 38 39 40 41 43 43 43 42 41 41 40 39 38 37 37 37 36 35 34 34 34 34 33 32 31
22 18 20 22 18 16 14 8 8 6 8 12 13 18 24 18 11 10 11 18 24 24 23 23 29 33 34 35 34 35 35 34 36 38 42 45 48 52 52 49 47 44 41 39 38 38 37 36 34 31 29 29 30 30 30 30 29 29 28 27 27 29 30 32 33 34 36 38 39 41 41 42 42 41 41 42 43 43 43 42 41 41 40 38 37 36 35 34 33 33 32 32 32 32 31 30 30
27 21 19 17 10 9 12 7 5 7 7 10 14 20 25 21 14 11 15 24 25 23 25 31 36 34 31 32 32 34 37 38 42 45 46 49 51 53 50 46 43 40 38 38 38 39 38 37 34 31 30 30 31 32 31 32 32 31 30 31 33 36 38 38 38 37 37 38 39 40 41 41 41 41 42 42 43 43 43 42 41 39 38 36 35 34 33 32 32 32 31 31 30 30 30 29 29
27 26 23 20 14 9 11 11 8 6 7 10 12 16 19 14 10 9 16 26 25 25 33 37 35 32 30 31 34 37 41 44 46 48 50 53 53 50 46 42 39 37 37 38 38 39 39 37 34 32 32 32 33 34 35 35 35 35 35 37 39 41 40 39 38 36 36 37 38 38 39 40 40 41 41 42 43 43 43 41 39 36 35 34 33 33 32 32 32 32 31 30 29 29 29 29 29
25 27 27 25 23 17 14 17 19 12 7 8 7 13 19 13 7 8 14 22 25 29 36 35 31 31 31 34 38 41 44 47 48 51 53 53 50 46 42 39 37 37 37 37 38 39 38 35 33 32 33 35 36 37 38 38 38 38 40 41 40 39 37 36 36 36 37 39 40 39 39 39 41 41 42 43 43 43 41 39 36 34 33 32 32 32 33 33 33 32 31 30 30 30 30 30 31
24 27 28 28 26 22 12 11 21 22 15 13 7 12 29 27 18 18 21 26 31 32 35 35 34 35 36 37 41 44 48 50 51 53 53 50 46 43 41 39 38 38 38 39 40 39 37 34 32 33 36 38 39 40 41 41 40 40 40 39 38 36 35 35 36 37 39 41 42 41 40 40 41 42 42 42 42 41 39 37 35 34 34 33 33 33 33 34 33 33 33 32 32 32 33 33 33
Wind_Direction
318 316 314 313 311 311 309 310 307 295 290 275 273 283 291 298 293 292 294 285 281 280 281 280 281 281 281 283 283 284 282 284 282 270 263 260 272 275 269 267 266 268 270 270 270 271 273 274 277 279 282 284 283 280 276 276 277 277 277 278 279 277 273 268 261 258 256 255 255 255 257 257 258 258 259 259 262 267 271 274 273 275 277 284 264 226 216 223 224 218 231 247 247 245 236 232 236
319 317 315 314 312 312 309 308 299 284 287 276 279 293 297 298 296 290 285 282 285 288 285 280 279 281 282 284 285 285 286 292 287 274 273 273 275 276 275 275 273 273 273 274 274 274 275 276 278 280 282 283 282 278 275 275 275 275 276 276 276 273 269 264 259 257 255 255 255 255 258 257 253 253 255 257 261 265 268 271 269 273 272 276 270 239 215 210 224 232 247 259 253 252 243 239 245
319 318 317 316 313 311 307 304 289 272 278 279 288 300 308 305 294 293 297 299 298 295 287 280 278 282 285 285 286 285 287 292 289 285 283 279 279 280 280 281 281 280 279 278 278 278 277 277 278 279 280 280 278 275 273 273 274 274 274 274 272 270 267 262 258 256 255 254 255 255 258 258 254 251 253 255 260 264 267 268 265 268 269 269 268 262 254 238 247 256 258 263 253 249 244 242 250
319 319 319 317 313 309 307 299 282 272 270 284 296 300 309 305 293 298 300 299 295 290 284 282 280 280 282 284 284 284 290 289 284 282 280 279 280 281 281 283 284 284 284 282 281 280 280 279 278 278 277 276 272 269 269 270 271 271 270 269 268 267 265 262 258 255 255 254 255 256 257 259 257 254 253 256 260 263 264 265 262 262 264 265 266 263 259 256 270 270 256 258 251 240 236 237 247
318 318 318 316 311 306 303 293 283 277 271 287 297 293 301 300 294 295 292 289 286 284 282 282 284 282 279 280 281 285 289 284 279 276 275 276 278 281 284 287 288 289 289 288 286 284 282 280 279 277 275 272 269 266 266 266 266 266 265 264 264 264 263 261 259 256 255 254 255 255 257 258 256 254 255 259 262 261 260 262 263 260 260 260 263 261 257 261 264 256 249 257 254 242 236 238 246
318 317 315 312 307 303 296 285 280 282 286 296 295 294 301 298 293 290 283 281 280 281 282 283 284 283 283 283 283 287 286 280 278 274 274 276 278 284 288 290 292 293 295 295 294 290 286 281 279 277 274 270 267 266 266 264 262 262 260 260 261 261 262 263 263 261 258 254 254 253 255 257 255 255 256 262 265 261 259 262 264 260 258 256 259 261 260 261 256 252 254 257 255 245 240 240 238
317 315 312 309 304 301 291 280 280 285 295 305 300 298 300 296 292 287 283 281 278 278 279 282 282 281 285 286 288 290 283 278 277 275 277 279 283 288 289 291 293 296 298 299 298 295 289 282 278 275 273 270 268 267 266 264 261 260 258 259 258 259 262 264 266 264 260 255 252 252 253 255 255 256 257 262 267 265 263 263 264 259 255 254 253 256 259 260 259 258 256 256 252 241 239 236 224
313 311 308 306 301 297 289 285 287 291 300 309 302 299 298 294 290 288 289 285 281 280 279 280 280 281 284 286 286 286 282 281 281 280 282 284 287 288 289 291 293 296 299 300 299 295 290 284 279 273 271 270 269 267 266 263 261 259 258 258 259 262 264 265 266 263 259 253 250 250 251 254 255 258 259 262 266 266 264 261 262 259 254 253 249 250 256 260 261 260 258 255 248 238 233 231 227
310 307 306 302 296 293 288 288 293 298 305 307 304 303 298 292 290 291 291 287 285 283 282 283 284 287 290 288 285 282 280 281 282 283 284 285 286 287 288 291 293 296 299 301 299 295 291 285 280 274 271 269 268 267 265 262 260 259 259 261 262 265 267 267 266 262 257 252 249 249 249 252 255 258 260 262 263 264 263 258 260 262 258 252 247 248 253 258 261 262 260 248 238 236 232 232 235
307 304 303 299 292 288 287 290 296 303 309 305 306 303 297 294 293 295 292 291 291 288 287 287 288 290 293 293 292 288 282 279 280 281 282 284 285 286 287 290 293 297 299 301 300 297 292 287 281 275 271 268 267 266 264 262 261 261 262 263 265 266 267 266 264 261 258 253 250 250 251 252 254 257 258 259 259 261 262 257 256 264 262 250 244 247 250 257 262 262 259 246 232 233 236 239 243
303 301 301 295 287 284 285 290 296 303 310 306 304 299 295 296 294 295 295 296 295 292 292 291 291 291 291 294 299 296 286 280 279 280 282 283 283 285 287 290 293 295 297 299 300 298 295 290 284 277 272 269 267 266 266 266 264 264 265 265 265 266 266 265 263 262 259 256 252 251 252 252 255 256 257 258 258 258 261 258 258 266 260 246 244 248 251 256 262 260 254 244 233 233 239 242 247
300 299 298 290 282 284 289 293 298 303 310 306 299 292 291 292 292 294 295 298 299 296 296 293 292 293 292 297 302 298 289 284 282 282 282 281 282 285 289 292 293 293 295 297 298 297 295 292 287 281 275 272 270 268 268 269 269 268 267 267 266 266 265 264 263 262 260 258 255 253 253 253 255 256 257 257 257 257 260 260 262 266 254 241 243 249 254 259 263 259 249 241 236 238 244 245 248
297 295 295 289 285 288 292 296 299 304 310 302 291 287 287 289 291 295 294 298 301 299 299 294 293 293 293 298 303 300 293 288 285 281 279 280 284 288 292 293 293 293 293 294 295 294 293 290 288 283 278 274 272 270 269 269 270 270 269 268 267 265 263 262 261 260 260 260 258 257 255 254 253 255 256 255 256 257 260 261 260 260 248 238 245 250 255 261 264 258 248 243 240 242 247 247 246
294 292 290 286 286 290 293 296 299 303 308 295 285 285 288 291 294 296 298 300 301 301 301 296 295 295 295 300 306 303 293 285 281 279 280 283 287 291 293 294 294 292 291 291 292 292 291 289 287 284 279 275 273 271 269 269 269 269 269 268 268 267 265 262 260 259 259 259 259 259 258 256 254 255 256 256 257 255 252 253 253 252 243 241 250 253 254 259 263 258 249 246 246 248 250 247 244
290 288 287 284 285 289 293 296 298 300 300 290 286 289 291 296 298 297 300 300 301 303 301 299 298 298 301 305 306 300 290 284 282 281 283 287 290 293 294 294 292 289 288 287 288 288 289 288 286 284 281 278 275 273 271 271 271 270 270 270 270 270 269 267 265 263 261 259 259 258 258 257 256 256 257 257 257 254 249 246 245 244 243 245 250 255 259 260 259 254 250 249 251 253 251 245 241
286 285 283 280 282 286 291 297 301 297 293 288 288 291 294 299 298 296 298 298 301 303 299 303 305 303 304 304 299 293 288 287 286 287 290 293 296 296 296 293 289 286 286 285 285 284 284 285 285 284 282 281 279 277 275 273 272 272 271 270 270 270 270 270 268 267 264 262 260 258 258 257 256 254 254 253 253 253 249 245 243 240 241 244 251 262 267 262 255 251 251 251 250 252 251 245 239
284 281 278 277 279 284 290 297 297 290 288 289 289 292 295 298 294 294 295 295 299 299 302 311 307 302 301 297 292 288 287 288 291 294 298 300 301 299 296 293 289 288 287 286 283 282 282 283 284 283 282 282 281 279 277 274 273 272 271 270 269 269 269 268 268 267 266 264 261 260 258 256 255 251 248 249 249 250 248 246 245 240 239 243 254 265 267 260 254 251 251 249 246 246 246 243 238
280 278 275 274 279 285 290 293 286 282 285 287 288 290 293 295 296 294 295 298 297 297 313 321 299 293 294 290 288 288 291 296 298 300 300 302 302 300 298 295 293 291 289 287 284 284 285 285 284 282 281 279 278 278 277 276 275 273 272 271 269 269 268 267 266 266 265 265 263 260 257 255 254 251 249 247 244 243 245 244 240 238 239 246 258 263 262 258 254 252 248 244 244 244 243 244 245
276 276 274 274 281 287 288 285 280 282 284 285 287 288 289 295 299 296 297 302 298 306 328 322 289 287 290 287 288 293 298 300 300 299 300 303 303 301 301 298 296 294 290 288 287 287 287 286 284 282 281 279 277 278 278 277 276 274 272 271 270 268 268 267 266 266 265 265 264 261 257 254 251 250 249 245 238 236 240 239 233 233 238 249 260 258 255 255 251 249 247 244 246 249 248 248 249
274 272 272 277 285 285 283 283 281 281 283 286 290 289 289 293 296 296 301 300 297 315 332 307 286 286 290 291 292 295 297 297 296 297 300 302 301 301 301 299 298 295 291 288 286 286 284 284 282 282 281 279 277 276 277 277 275 273 270 269 268 267 266 266 266 266 265 265 265 262 258 253 249 245 241 238 234 232 235 236 234 238 245 254 259 254 249 250 249 249 247 246 247 250 249 247 244
271 269 271 280 285 281 282 285 281 279 283 289 294 294 292 292 293 297 301 295 298 323 322 295 287 287 291 295 296 294 292 294 295 297 299 300 300 300 299 299 299 297 293 290 288 286 284 282 281 280 278 277 276 274 273 273 272 271 270 267 266 266 265 265 265 265 265 265 264 262 258 253 247 241 235 232 232 231 233 237 240 245 251 255 255 253 248 247 250 248 245 245 246 247 246 244 246
269 272 274 278 280 279 282 283 279 279 283 289 295 295 293 294 296 299 296 291 301 322 311 294 288 289 293 296 297 295 293 295 297 299 301 301 300 300 300 300 299 297 294 292 290 287 283 281 279 278 277 276 275 275 274 272 272 271 269 267 265 265 265 265 264 264 264 264 262 260 255 251 247 242 235 230 233 235 237 240 243 245 248 250 251 250 247 246 248 246 243 244 245 246 246 247 249
269 272 273 275 277 277 280 281 279 280 284 288 293 291 291 298 300 296 290 291 303 313 301 291 288 289 293 294 296 296 297 299 301 303 302 300 299 300 301 301 298 293 291 289 286 282 280 278 278 277 276 276 275 275 274 273 272 271 269 267 266 266 266 266 265 264 263 263 260 253 251 251 248 244 239 236 238 240 242 244 245 245 246 246 246 243 242 243 244 245 246 248 247 248 249 250 251
266 270 273 275 273 274 278 281 281 283 286 288 289 286 290 299 298 292 290 298 307 303 292 287 287 290 291 293 295 297 299 300 301 301 299 297 295 295 296 296 292 288 285 283 280 279 280 278 276 277 277 276 276 275 275 273 272 272 271 270 268 267 266 266 266 265 264 264 258 248 248 252 250 246 244 245 245 243 243 244 244 244 243 242 240 237 237 240 241 243 247 250 251 250 249 249 249
265 269 273 272 270 273 276 278 282 287 288 289 287 286 292 297 294 291 297 309 310 300 292 288 289 292 294 296 298 299 299 298 299 297 295 293 292 291 289 287 285 283 282 279 279 280 280 279 279 279 279 278 277 277 277 275 273 273 272 271 270 268 267 266 266 267 266 265 260 253 251 251 249 248 248 248 246 243 242 243 243 240 237 237 236 234 235 239 240 242 245 249 251 249 247 246 246
266 269 271 271 272 274 275 278 282 285 287 288 288 290 293 294 290 292 302 310 304 298 295 294 294 295 297 299 300 300 299 299 298 295 293 293 291 289 286 285 284 284 284 282 282 282 280 280 282 282 280 280 279 279 278 276 275 273 272 272 271 269 267 266 266 266 267 266 263 259 255 250 248 248 252 252 248 247 245 242 239 237 236 236 237 235 235 239 240 242 245 247 247 246 245 244 245
266 268 269 272 274 276 278 280 282 283 285 286 286 288 289 288 287 293 302 302 297 298 297 298 299 300 302 302 302 302 302 301 298 296 294 292 288 286 287 288 289 288 287 287 286 284 283 283 283 281 280 280 280 280 280 278 276 274 272 271 271 270 268 267 265 264 264 264 263 261 257 254 252 249 248 248 248 248 247 244 241 241 241 240 239 237 236 238 241 244 247 246 243 242 242 243 246
265 265 267 270 274 277 279 281 283 284 285 284 282 282 282 283 287 295 299 296 296 298 298 301 302 304 305 303 304 304 304 302 299 298 295 290 288 288 291 293 292 291 291 290 288 287 286 284 283 282 281 281 281 281 281 280 279 276 273 271 270 270 269 267 265 263 261 261 260 260 259 257 255 251 243 239 240 240 241 247 249 244 240 238 237 237 238 240 243 246 246 244 241 241 242 244 248
264 264 267 269 272 276 277 281 283 282 282 282 284 286 284 285 292 297 296 296 298 298 299 302 303 305 305 304 305 305 304 303 300 297 293 292 293 294 295 293 291 290 289 288 287 286 285 284 284 283 282 281 281 280 280 281 281 279 276 273 271 270 269 267 265 263 261 259 258 257 257 257 255 253 245 237 233 234 239 244 246 241 238 239 238 237 240 242 244 246 245 242 243 244 244 248 255
264 266 269 273 278 280 279 278 277 278 281 284 288 285 281 289 298 300 298 299 299 299 300 302 303 305 306 306 306 305 304 301 298 294 293 295 296 295 293 290 288 287 286 285 284 283 283 284 284 283 283 283 282 281 281 281 280 279 278 276 273 270 268 267 264 262 261 260 259 256 254 255 255 253 248 236 229 234 241 241 243 245 245 247 247 244 242 241 241 244 245 245 246 247 249 255 261
267 269 271 274 279 281 282 281 279 282 284 287 289 282 280 292 297 299 302 302 301 302 304 305 307 308 308 307 304 303 302 299 296 294 295 296 293 292 290 288 287 286 286 284 283 283 282 283 282 282 282 282 282 281 281 280 280 280 279 278 276 273 270 269 266 264 262 260 260 257 254 253 253 252 247 237 230 232 238 242 248 252 251 251 252 249 245 243 241 242 246 250 251 252 256 262 266
267 268 270 273 273 276 280 281 281 285 287 290 292 285 286 294 295 298 301 304 304 306 309 311 311 311 308 304 300 300 299 296 295 296 296 294 291 290 288 287 287 287 286 286 285 284 284 283 283 282 281 280 280 280 280 280 279 279 278 278 277 275 272 271 269 267 264 260 259 258 255 253 251 249 245 239 235 232 234 240 247 252 254 253 252 250 247 248 248 246 247 251 252 254 261 267 269
267 266 265 270 273 274 279 281 282 286 290 292 293 287 286 293 298 299 301 305 306 307 311 313 312 310 305 300 300 301 300 297 296 297 295 292 291 290 289 290 290 289 288 287 286 285 285 284 283 282 281 280 279 280 280 280 280 279 278 278 277 275 272 269 267 266 264 260 258 257 257 255 253 249 243 241 241 238 236 238 242 247 252 254 252 252 251 250 251 251 251 252 253 257 263 266 267
264 269 268 268 270 271 276 281 286 291 292 293 293 289 288 295 300 300 302 304 304 307 312 313 311 307 301 300 306 305 301 299 297 295 294 293 292 292 293 293 291 290 288 287 286 285 285 285 285 284 282 281 280 280 281 281 281 280 280 280 280 278 274 269 267 265 263 261 259 258 257 256 254 252 245 242 244 245 243 241 242 244 247 252 254 255 254 253 254 253 253 253 254 257 261 263 264
263 271 272 269 268 271 276 281 289 294 293 291 290 289 291 295 298 301 303 302 302 307 312 313 310 302 296 303 306 303 299 298 297 296 294 293 294 295 296 295 292 290 289 288 287 286 286 287 288 288 286 285 283 282 281 281 281 281 281 281 280 280 278 273 269 266 264 263 262 260 258 256 254 252 248 243 241 244 248 247 245 245 246 250 252 253 254 255 255 253 252 253 255 257 257 259 260
268 269 268 267 269 273 278 284 289 292 290 288 286 288 291 292 296 300 302 301 301 307 313 314 309 298 298 302 299 297 296 296 296 296 297 296 297 299 299 297 295 294 292 291 289 288 287 287 287 288 288 288 287 285 283 282 281 281 281 280 279 278 276 273 269 266 264 263 262 260 259 256 252 250 248 244 238 238 244 247 248 248 246 248 251 252 254 255 256 253 252 253 256 258 256 255 255
263 265 266 267 270 273 280 286 288 289 289 287 288 289 289 290 296 300 302 301 300 308 316 313 304 298 300 299 294 293 294 295 297 297 299 301 302 302 300 298 297 296 296 294 292 290 288 287 286 287 288 288 287 286 284 283 282 282 281 280 278 275 273 269 266 263 262 261 259 259 258 255 252 250 247 243 238 236 239 244 248 249 246 246 249 251 252 253 253 252 251 251 254 256 254 252 253
262 264 266 267 270 274 282 287 286 289 289 288 292 292 290 293 299 302 302 297 298 314 316 301 295 295 295 296 292 291 293 295 298 299 301 303 303 301 298 297 297 296 295 294 293 292 291 289 288 288 288 288 287 285 285 284 282 282 281 281 279 277 274 269 264 261 259 258 257 256 255 253 252 250 247 243 240 238 240 241 245 248 246 246 247 247 249 250 250 250 250 250 252 253 253 251 251
261 260 262 265 271 278 285 288 288 289 288 290 294 293 292 298 302 302 298 290 300 318 309 285 292 290 288 292 289 288 293 297 299 301 303 304 302 300 298 298 297 296 295 294 293 293 293 292 291 291 290 289 288 286 285 284 283 282 281 281 282 281 278 272 266 262 259 258 257 255 253 251 251 250 247 243 240 241 241 240 242 245 246 246 245 244 247 250 249 250 250 250 251 250 252 252 251
258 257 258 263 272 281 286 289 289 287 287 291 294 294 296 301 305 301 290 290 292 305 304 290 283 284 286 285 282 289 296 300 302 304 304 303 301 299 299 299 298 297 296 295 295 294 294 293 292 291 289 287 286 285 285 284 284 283 282 282 283 283 281 276 270 265 262 260 259 257 253 250 249 249 248 243 239 240 243 243 244 246 245 244 242 240 243 246 247 248 248 249 249 248 250 255 253
257 256 257 266 277 284 285 285 286 286 288 290 296 301 300 300 303 293 284 282 196 249 306 291 267 280 280 274 283 294 299 303 305 305 303 300 297 297 298 299 299 299 299 298 297 296 295 294 292 290 288 286 284 283 282 282 283 283 282 282 282 282 280 277 273 268 265 262 260 257 254 251 250 249 247 245 240 238 242 246 248 250 250 249 247 245 245 245 246 248 249 249 249 249 252 255 253
255 258 263 273 282 282 279 280 286 291 289 287 303 315 302 286 285 276 274 211 200 286 305 265 256 270 260 277 294 299 305 309 308 305 301 297 296 298 299 300 301 301 302 301 300 299 297 295 293 291 288 285 283 282 281 281 281 281 281 281 281 281 279 276 273 268 265 262 259 256 253 251 249 248 246 245 244 241 241 243 246 249 251 252 252 253 252 252 252 253 255 255 254 254 256 255 254
256 264 272 277 277 273 271 277 283 286 278 278 296 309 285 288 281 258 260 199 225 301 299 240 253 247 259 295 301 309 316 315 310 304 301 300 301 303 303 304 304 303 303 302 302 302 301 299 296 294 291 288 285 284 283 282 282 281 281 280 281 282 282 279 275 271 267 264 262 259 256 253 251 249 247 245 244 244 244 245 246 247 250 252 253 254 254 255 256 256 257 257 257 257 257 256 256
258 268 275 271 268 268 270 278 278 278 281 283 289 283 275 282 259 235 256 219 247 296 275 253 250 241 283 301 302 317 321 315 310 307 305 306 307 308 309 310 308 307 305 304 305 305 304 301 298 295 293 291 288 286 285 284 283 282 281 280 281 283 284 283 279 276 273 270 268 266 262 258 255 251 247 243 241 243 245 247 248 248 249 252 255 255 256 256 256 256 257 258 259 260 261 261 261
260 267 269 260 265 270 274 279 278 283 288 283 281 277 269 271 251 247 262 242 259 282 274 269 243 264 297 297 306 320 318 313 313 311 310 311 311 312 313 315 314 311 309 308 308 307 306 304 301 299 296 293 290 288 285 284 283 282 280 279 279 281 282 281 280 278 277 275 273 272 269 265 261 255 250 245 242 244 246 248 250 253 255 256 256 257 258 259 260 260 260 261 262 262 264 266 267
259 259 258 258 266 271 276 279 279 285 283 256 266 269 262 266 240 216 243 252 260 279 303 289 259 284 299 291 308 317 313 315 315 313 314 315 315 315 315 317 317 313 310 310 309 308 308 307 305 302 298 295 292 289 286 283 282 281 279 277 276 277 277 277 277 276 275 274 272 272 272 270 267 264 260 255 251 251 252 254 258 263 265 263 261 262 263 263 264 264 262 263 264 265 266 267 269
252 251 254 262 271 275 278 279 279 282 269 257 269 266 252 253 201 205 248 261 277 301 311 300 279 291 298 296 307 311 312 317 316 313 315 317 318 318 317 317 318 314 311 309 309 309 309 308 306 304 300 297 294 290 287 285 283 283 281 278 275 273 273 272 272 273 272 271 270 270 270 268 264 262 262 260 258 258 259 261 266 269 270 270 270 270 270 270 270 270 269 267 268 268 269 270 271
248 249 255 263 275 282 276 269 262 257 259 261 268 257 235 231 224 247 268 280 297 302 306 299 288 294 297 300 305 308 315 318 316 316 317 318 319 319 318 318 317 314 310 308 308 309 309 308 307 305 302 299 296 293 290 288 287 287 285 280 275 272 271 269 269 269 267 266 266 265 265 264 261 260 260 260 261 261 262 265 268 270 270 271 271 271 271 271 271 272 270 267 267 268 269 270 270
245 245 243 245 263 277 248 222 206 238 254 260 264 260 233 241 250 260 271 283 294 301 305 301 297 297 297 301 307 313 319 319 316 318 317 317 318 318 317 317 316 313 309 308 308 308 308 307 306 305 303 301 298 295 292 290 288 286 283 278 274 272 270 268 266 264 263 264 265 264 265 266 266 265 264 264 264 265 267 269 271 272 272 272 272 272 272 271 270 270 268 266 266 267 270 271 271
242 238 228 216 223 253 243 229 238 251 255 259 263 269 255 258 266 264 264 279 298 301 303 301 300 298 299 306 313 317 320 318 316 316 315 314 315 316 316 315 314 311 308 307 306 306 306 305 304 304 303 303 301 298 294 290 286 281 276 271 268 267 267 267 266 266 267 268 268 268 268 269 269 269 268 267 268 269 269 270 271 272 273 273 273 272 271 270 269 268 267 266 267 267 268 269 269
246 243 234 227 225 233 254 255 261 287 294 278 251 255 253 253 273 269 252 284 297 299 299 299 298 300 305 311 316 318 318 316 314 312 311 311 312 315 315 314 311 308 307 306 304 304 304 303 303 302 302 302 300 298 293 287 281 274 268 263 260 260 261 263 267 270 272 272 271 270 270 270 270 271 272 272 272 271 271 270 270 270 271 271 270 268 267 266 265 265 264 264 265 265 265 266 267
247 242 230 228 231 235 256 275 276 293 306 278 226 250 263 266 276 277 278 290 297 299 297 300 303 306 310 315 317 317 316 315 311 307 307 307 310 312 312 311 309 307 306 305 304 303 302 302 302 301 301 298 294 290 286 279 272 266 261 258 258 259 261 264 268 272 275 275 275 274 273 273 274 275 276 276 275 274 272 270 269 268 267 266 265 263 263 262 262 262 262 263 264 265 266 266 267
236 229 221 229 236 236 246 273 278 282 288 269 241 261 271 274 278 275 276 291 298 300 300 303 307 310 313 315 316 314 313 311 305 302 303 304 307 310 310 309 308 307 307 306 305 303 302 302 302 300 297 292 285 280 276 271 265 259 257 259 263 266 266 267 269 273 277 278 278 277 277 277 277 277 278 277 276 273 271 269 267 266 265 263 262 260 260 260 260 260 260 261 262 263 264 265 266
223 218 223 235 240 239 238 262 289 271 269 270 261 268 274 275 270 257 271 293 299 300 301 303 307 311 313 311 311 309 307 305 301 302 303 304 306 308 308 307 307 308 307 306 305 304 302 301 300 295 289 282 276 271 267 263 259 256 258 261 268 274 277 277 279 281 282 282 280 280 280 279 278 278 277 276 274 271 270 269 266 265 263 262 260 259 258 258 258 259 260 261 261 262 264 265 267
223 225 230 230 223 221 219 221 276 267 261 276 276 276 278 274 255 241 277 294 299 298 298 304 309 311 310 306 305 304 303 303 303 304 304 305 306 306 306 307 307 307 306 306 306 305 302 300 296 289 281 274 268 264 262 259 258 259 262 266 274 284 290 290 288 287 285 284 281 279 277 276 276 275 275 273 272 270 269 268 265 262 260 259 258 259 259 260 261 262 263 263 263 264 265 266 267
224 229 230 227 224 222 216 217 241 262 266 277 287 291 286 273 236 237 286 296 297 297 301 307 309 307 305 302 301 303 304 305 304 305 305 305 305 305 306 307 307 306 306 306 307 305 302 298 292 284 275 270 266 262 260 259 260 262 267 275 285 292 295 293 290 287 286 285 282 278 275 274 273 272 272 271 270 269 267 263 260 258 256 256 256 258 260 262 263 264 263 262 262 262 263 264 266
235 232 230 229 228 230 236 241 241 241 264 279 285 289 282 269 240 263 293 297 296 301 304 306 305 303 301 300 301 304 305 304 303 304 304 304 305 305 306 306 306 305 306 306 306 305 301 297 290 280 274 271 266 261 260 261 262 265 274 285 293 295 293 291 289 288 288 287 283 278 275 273 271 270 269 268 267 265 262 258 256 255 254 255 257 259 261 263 263 263 261 259 259 260 261 263 266
249 247 245 245 239 232 233 252 246 236 239 253 255 281 278 272 269 278 289 295 297 301 303 302 302 302 300 300 302 303 303 303 302 303 304 305 305 306 305 304 304 304 303 303 304 303 298 295 287 276 272 269 264 262 261 261 264 273 285 294 296 294 291 291 291 290 288 285 280 275 272 270 269 268 268 267 264 261 257 254 253 253 254 256 258 260 261 261 261 259 258 257 257 259 261 263 266